Regional Weather Roundup
Issued by NWS Wilmington, NC

Home | Current Version | Previous Version | Text Only | Print | Product List | Glossary On
Versions: 1 2 3 4 5 6 7 8 9 10 11 12 13 14 15 16 17 18 19 20 21 22 23 24 25 26 27 28
000
ASUS42 KILM 230413
RWRILM
RWRILM
REGIONAL HOURLY WEATHER ROUNDUP
NATIONAL WEATHER SERVICE WILMINGTON NC
1100 PM EST WED FEB 22 2017

NOTE: "FAIR" INDICATES FEW OR NO CLOUDS BELOW 12,000 FEET WITH NO
SIGNIFICANT WEATHER AND/OR OBSTRUCTIONS TO VISIBILITY.

...............WFO WILMINGTON COUNTY WARNING AREA...............

......COASTAL NC AND SC COUNTIES......

CITY           SKY/WX    TMP DP  RH WIND       PRES   REMARKS
WILMINGTON     CLOUDY    56  53  90 NE3       29.93F
N MYRTLE BEACH MOCLDY    59  55  87 NE5       29.91F
MYRTLE BEACH   NOT AVBL

......INLAND NC AND SC COUNTIES.......

CITY           SKY/WX    TMP DP  RH WIND       PRES   REMARKS
LUMBERTON      LGT RAIN  60  54  80 SE5       29.92F
ELIZABETHTOWN  PTCLDY    58  53  84 CALM      29.93F
WHITEVILLE     PTCLDY    62  53  72 CALM      29.93S
FLORENCE       CLOUDY    60  55  83 E6        29.92F
DARLINGTON     CLOUDY    61  54  77 SE3       29.92F
KINGSTREE      FAIR      59  54  82 CALM      29.91F
HARTSVILLE     FAIR      59  52  77 CALM      29.91F
BENNETTSVILLE  NOT AVBL
CONWAY         FAIR      55  54  94 CALM      29.92F
GEORGETOWN     FAIR      57  55  94 CALM      29.91F
MARION         FAIR      59  52  77 CALM      29.93S

....................REST OF NORTH CAROLINA......................

.........EASTERN NC.........

CITY           SKY/WX    TMP DP  RH WIND       PRES   REMARKS
CAPE HATTERAS  CLOUDY    61  54  77 VRB5      29.96F
JACKSONVILLE   CLOUDY    53  51  93 CALM      29.95F
MOREHEAD CITY  CLOUDY    58  54  86 CALM      29.95F
KENANSVILLE    NOT AVBL
NEW BERN       PTCLDY    54  52  93 CALM      29.97S
ELIZABETH CITY CLOUDY    58  51  78 SE3       29.96F

.........CENTRAL NC.........

CITY           SKY/WX    TMP DP  RH WIND       PRES   REMARKS
RALEIGH DURHAM CLOUDY    58  53  84 CALM      29.94F
ROCKY MOUNT    CLOUDY    56  53  90 CALM      29.94F
ROANOKE RAPIDS NOT AVBL
FAYETTEVILLE   CLOUDY    60  53  77 SE7       29.92F
HOFFMAN        CLOUDY    57  52  82 CALM      29.93S

.........WESTERN NC.........

CITY           SKY/WX    TMP DP  RH WIND       PRES   REMARKS
CHARLOTTE      CLOUDY    59  53  80 N6        29.94S
GREENSBORO     FOG       54  54 100 CALM      29.93F VSB 1/4
HICKORY        NOT AVBL
BOONE          NOT AVBL
ASHEVILLE      NOT AVBL

.....................REST OF SOUTH CAROLINA.....................

.........EASTERN SC.........

CITY           SKY/WX    TMP DP  RH WIND       PRES   REMARKS
CHARLESTON     MOCLDY    61  57  87 NE7       29.87F
BEAUFORT MCAS  CLOUDY    63  61  93 NE7       29.85F
HILTON HEAD    PTCLDY    64  63  94 NE6       29.85F

.........CENTRAL SC.........

CITY           SKY/WX    TMP DP  RH WIND       PRES   REMARKS
COLUMBIA       CLOUDY    65  55  70 E5        29.89F
ORANGEBURG     PTCLDY    60  56  86 E3        29.89F
SUMTER SHAW    PTCLDY    62  55  75 E5        29.88F

.........WESTERN SC.........

CITY           SKY/WX    TMP DP  RH WIND       PRES   REMARKS
GREENVILLE     NOT AVBL
ROCK HILL      CLOUDY    59  54  83 CALM      29.94R
ANDERSON       CLOUDY    59  53  80 NE8       29.92F
CLEMSON        NOT AVBL
GREENWOOD      PTCLDY    58  54  86 N6        29.92F


...................COASTAL AND OFFSHORE REPORTS..................

................LOCAL PIERS AND NC RESERVE................


STATION/POSITION TIME  SKY/WX   TEMP    WIND        PRES    VSBY
                                AIR SEA DIR/SP/G
                 (UTC)          (F)     (DEG/KT/KT) (MB)    (MI)
JOHNY MRCER PIER 0348            62 60   90/  8/  8 1012.5F
NC RESRV MASNBRO 0245            61     120/  2     1013.0
OCEAN CREST PIER NOT AVBL
SPRINGMAID  PIER 0336                               1012.3F


................COASTAL AND OFFSHORE BUOYS................


STATION/POSITION TIME  SKY/WX   TEMP    WIND        PRES    VSBY
                                AIR SEA DIR/SP/G
                 (UTC)          (F)     (DEG/KT/KT) (MB)    (MI)
DIMNDSHOAL 41025 0350            68 74  160/  8/ 12 1014.7F
WVE H/P(F/S)=  3/10 SWL H/P/D(F/S/D)=  3/ 80/10

CAPE LOOKOUT     0400            65     150/ 10/ 12 1013.7F
ONSLOW BAY 41036 NOT AVBL
ONSLOW BAY 41064 0308            68     150/ 12/ 16 1014.1F
ONSLOW BAY 41159 0343               69                N/A
WVE H/P(F/S)=  4/12 SWL H/P/D(F/S/D)=  2/110/12

MASNBO INL 41110 0359               58                N/A
WVE H/P(F/S)=  3/ 6 SWL H/P/D(F/S/D)=  2/100/11

WILM HARBR 41108 0347               59                N/A
WVE H/P(F/S)=  3/ 6

27SE WRITB 41037 0308            67 65  130/  8/ 10 1013.1F
FRYING PAN 41013 0350            69 69  130/ 14/ 17 1012.8F
WVE H/P(F/S)=  4/ 6 SWL H/P/D(F/S/D)=  2/100/ 9

SUNST NRSH 41024 0308            60 59   60/  6/ 10 1013.3F
CAPRS NRSH 41029 0308            61 59   50/  8/ 10 1012.1F
EDISTO     41004 0350            70 70  110/ 16/ 19 1010.6F
WVE H/P(F/S)=  6/ 7 SWL H/P/D(F/S/D)=  2/100/13



..........OFFSHORE BUOYS BEYOND 100 NM OFFSHORE...........
.....IN A TRIANGLE---HAT TO BERMUDA TO BAHAMAS TO HAT.....


STATION/POSITION TIME  SKY/WX   TEMP    WIND        PRES    VSBY
                                AIR SEA DIR/SP/G
                 (UTC)          (F)     (DEG/KT/KT) (MB)    (MI)
150E HAT   41001 NOT AVBL
W BERMUDA  41048 0350            63 68   80/  8/ 10 1017.8F
WVE H/P(F/S)=  7/12 SWL H/P/D(F/S/D)=  7/ 70/12

ATLANTIC S 41049 0350            68 72   20/  8/ 12 1016.5S
WVE H/P(F/S)= 12/12 SWL H/P/D(F/S/D)= 11/350/12

E BAHAMAS  41046 0400            76 77  120/ 17/ 21 1011.5
NE BAHAMAS 41047 0400            71 74  120/ 16/ 19 1014.3
120E CANVRL41010 NOT AVBL

END




USA.gov is the U.S. government's official web portal to all federal, state and local government web resources and services.